Location: Ellerstadt
(49.4644°N, 8.2615°E)
Time: 16:39:29
(UTC+00:00)

Altair - Pass Details

Date: 17 June 2021
Orbit: 1502 x 1682 km, 47.2° (Epoch: 02 August)

Event Time Altitude Azimuth Distance (km) Brightness Sun altitude
Rises 20:47:43 0° 288° (WNW) 4,872 11.1 -8.9°
Reaches altitude 10° 20:51:53 10° 274° (W) 3,906 10.2 -9.3°
Maximum altitude 20:58:34 21° 231° (SW) 3,164 9.1 -9.9°
Drops below altitude 10° 21:05:19 10° 188° (S) 3,936 9.2 -10.5°
Enters shadow 21:07:31 - 180° (S) 4,419 9.4 -10.7°
